Location: Coupvray
(48.8929°N, 2.7967°E)
Time: 03:08:56
(UTC+00:00)

Cosmos 2251 Rocket - Pass Details

Date: 14 July 2020
Orbit: 764 x 792 km, 74.0° (Epoch: 06 August)

Event Time Altitude Azimuth Distance (km) Brightness Sun altitude
Exits shadow 01:32:38 19° 242° (WSW) 1,756 4.9 -16.2°
Maximum altitude 01:35:55 40° 302° (WNW) 1,124 4.4 -16.0°
Drops below altitude 10° 01:40:52 10° 12° (NNE) 2,319 7.3 -15.6°
Sets 01:43:24 0° 20° (NNE) 3,252 8.6 -15.4°
